Wetbulb
50.24 52.87 52.42 49.96 48.21 51.44 46.89 48.42 45.57 48.29 50.61 53.34 55.62 58.06 63.66 63.08 65.73 63.51 66.44 69.43 70.29 71.16 71.48 71.74 72.14 72.23 73.28 73.82 74.36 74.92 74.48 75.47
49.87 51.47 51.76 50.04 52.31 46.83 47.86 41.17 41.13 46.10 48.88 49.31 53.38 56.12 60.39 62.33 62.25 63.45 66.12 65.74 69.76 71.42 71.80 72.79 72.91 73.65 73.81 74.83 74.45 75.28 74.95 75.20
48.32 46.48 45.90 47.02 45.91 48.20 49.45 48.15 43.51 42.52 46.58 56.65 58.21 56.93 58.38 62.54 63.09 63.69 64.68 66.31 66.71 66.99 72.56 73.26 73.65 74.17 73.69 74.44 75.01 75.43 75.90 75.01
43.08 48.39 49.26 47.70 45.95 45.97 42.32 44.58 47.61 46.99 47.17 56.54 58.58 58.20 58.09 58.17 61.13 66.67 67.77 66.76 66.27 64.18 66.00 72.79 73.22 73.63 73.91 74.16 75.16 75.67 76.08 75.26
39.84 44.17 46.97 44.59 45.29 45.52 45.82 45.97 44.87 44.55 46.91 56.70 58.06 59.56 59.71 58.83 60.04 64.40 67.44 63.40 63.42 65.48 67.46 72.52 72.95 73.59 74.26 74.28 74.27 76.05 76.38 75.57
37.54 41.48 43.83 42.79 44.54 44.90 43.79 42.93 44.01 44.79 48.55 54.52 55.49 56.95 58.80 60.93 62.62 62.71 65.33 65.99 65.37 68.43 69.80 73.30 73.40 73.65 73.98 74.40 74.77 75.09 75.65 75.54
41.61 42.61 42.99 42.67 42.60 43.49 42.79 43.59 43.08 46.36 47.54 52.50 52.48 54.71 57.42 60.14 61.53 62.66 64.08 64.65 66.80 68.16 68.93 73.15 73.76 74.04 74.31 74.83 74.54 74.93 74.91 74.82
38.65 42.26 42.62 41.32 42.81 43.18 43.67 44.04 44.15 45.61 45.95 52.09 54.30 56.15 56.94 58.77 59.78 59.41 60.67 64.46 66.34 65.24 73.53 72.79 74.50 74.44 74.66 74.67 74.80 75.02 74.49 74.38
34.11 39.93 40.48 37.09 42.12 42.64 43.33 44.97 44.41 41.50 46.67 50.70 50.33 52.20 54.52 55.29 55.49 57.11 59.67 60.21 67.17 68.58 69.48 70.63 74.06 75.47 74.92 75.05 75.80 75.08 74.88 74.97
34.77 37.38 28.29 40.94 46.63 46.27 43.77 44.71 45.78 45.89 47.03 48.96 49.92 51.07 52.50 54.26 55.08 56.96 59.49 60.48 70.22 67.51 70.77 72.17 70.45 71.85 76.67 76.47 75.75 75.61 74.91 75.50
32.76 32.46 36.77 40.02 43.78 43.50 42.47 42.59 46.32 46.12 47.74 48.86 49.81 50.53 50.63 54.13 55.72 57.16 58.94 62.68 70.13 70.77 71.39 73.09 73.16 73.74 76.02 76.73 75.93 75.70 75.41 75.55
36.50 30.54 27.78 39.06 44.55 46.24 45.78 37.32 46.79 46.80 46.52 47.04 48.65 44.73 48.99 54.31 54.48 58.93 67.00 69.33 69.55 70.59 71.22 71.77 72.97 73.67 73.58 75.08 76.46 74.88 75.49 76.02
35.12 33.43 36.31 43.76 45.55 46.92 34.01 37.44 47.71 48.22 48.28 48.18 46.33 50.41 54.69 56.91 55.88 65.40 66.18 67.66 69.51 70.19 70.92 72.53 73.64 74.00 73.31 73.67 74.60 77.02 76.50 77.38
36.08 33.07 29.54 45.84 45.03 39.61 44.14 46.98 46.81 46.49 46.91 47.32 48.47 51.09 54.17 56.42 61.15 63.51 64.44 65.47 67.38 68.72 70.05 73.95 75.42 73.90 73.08 73.73 75.70 77.38 77.98 76.83
34.69 36.51 43.34 44.72 43.71 46.08 46.42 45.03 45.44 45.47 46.86 47.78 48.30 50.72 51.42 59.50 61.30 61.54 60.68 62.29 64.29 66.95 70.55 76.09 75.12 76.37 73.59 74.81 76.63 79.00 78.26 76.77
34.74 39.88 40.62 42.21 42.61 43.23 44.29 44.07 44.29 45.26 46.63 48.07 48.47 50.91 56.97 57.28 56.67 56.85 58.19 58.32 59.75 63.47 66.24 66.60 68.33 71.09 76.87 76.54 77.64 77.88 77.17 77.34
35.24 38.02 38.87 40.94 41.96 42.97 43.78 45.20 44.90 46.99 49.03 49.41 50.83 54.67 54.84 54.20 54.15 55.51 56.40 57.38 58.52 60.62 61.24 61.64 64.61 68.39 70.89 72.00 76.97 75.99 77.48 77.20
32.75 38.37 36.53 38.13 41.69 42.04 42.31 45.14 47.15 48.52 49.37 50.78 52.05 53.82 53.80 53.61 54.70 55.38 56.29 57.64 57.02 57.07 57.81 58.46 60.48 64.06 67.14 69.48 71.47 78.08 76.80 76.98
38.78 42.47 41.53 41.14 42.35 42.97 43.80 46.11 48.01 48.46 48.79 48.23 50.73 53.68 55.12 54.52 55.43 55.78 56.65 56.67 55.77 55.99 56.70 57.22 57.71 60.58 62.50 65.69 69.11 73.68 76.98 76.75
MSLP
998.99 999.59 1000.01 999.53 999.13 999.43 998.60 997.54 996.52 994.99 993.93 993.73 993.56 993.99 995.51 998.40 999.17 999.47 1001.23 1001.61 1001.25 1002.52 1003.55 1004.36 1005.18 1006.13 1007.26 1008.86 1010.27 1011.32 1012.27 1013.34
1000.01 1000.22 999.93 1000.02 999.85 999.44 999.27 998.33 996.59 995.08 993.53 992.14 992.47 993.06 994.38 996.52 997.71 999.14 1001.21 1003.41 1001.63 1001.85 1003.36 1004.09 1004.48 1005.27 1006.67 1008.01 1009.26 1010.37 1011.54 1012.25
1000.99 1000.89 1000.94 1001.24 1000.73 1000.58 999.88 998.93 997.45 996.00 993.98 992.24 991.53 991.87 992.69 994.77 996.25 997.35 999.61 1001.59 1002.86 1004.00 1002.70 1003.56 1004.32 1004.73 1005.65 1006.95 1008.38 1009.55 1010.57 1011.53
1002.84 1001.57 1001.91 1002.03 1001.23 1000.59 1000.16 999.73 998.22 996.62 994.95 992.42 992.42 991.59 992.34 993.19 994.21 996.16 997.90 999.92 1002.86 1003.73 1004.28 1002.02 1003.05 1003.73 1004.39 1005.73 1006.93 1008.20 1009.33 1010.48
1004.83 1003.57 1002.43 1002.05 1001.64 1001.24 1000.56 999.93 998.46 997.25 995.80 993.38 993.62 993.21 992.70 993.42 994.25 995.14 997.71 1000.01 1002.32 1002.86 1004.09 1000.51 1001.15 1002.23 1003.02 1004.42 1005.60 1007.11 1008.52 1009.57
1006.35 1004.93 1005.07 1003.38 1002.76 1002.44 1001.51 1000.22 999.30 997.71 996.96 995.26 995.97 995.92 996.01 995.52 995.63 995.77 996.50 999.29 1000.01 999.45 1000.23 998.31 1000.05 1000.71 1001.85 1003.12 1004.49 1005.85 1007.20 1008.35
1008.96 1007.99 1007.19 1005.79 1004.60 1003.38 1002.11 1001.32 1000.12 998.83 997.93 996.72 998.65 998.10 998.10 997.86 997.50 997.17 996.47 996.25 996.31 996.71 997.26 997.18 998.82 999.40 1000.67 1002.01 1003.38 1004.51 1005.75 1006.96
1010.33 1009.49 1008.33 1006.73 1005.65 1004.51 1003.28 1002.03 1001.17 1000.34 999.21 998.32 999.38 1000.06 999.14 999.16 999.20 998.83 998.09 996.88 996.25 996.21 995.92 996.89 997.06 997.81 999.20 1000.65 1002.00 1003.26 1004.45 1005.35
1011.33 1010.82 1009.53 1007.56 1006.21 1005.37 1004.37 1003.57 1003.05 1002.09 1000.79 1000.64 1001.04 1001.45 1000.99 1000.39 1000.62 1000.29 999.99 998.95 996.09 996.02 996.51 997.11 997.02 997.26 998.36 999.37 1000.62 1002.16 1003.41 1004.66
1013.15 1012.18 1010.34 1008.56 1007.46 1006.26 1005.42 1004.63 1004.30 1003.83 1003.09 1002.17 1002.54 1002.70 1002.40 1001.79 1001.74 1001.31 1000.91 1000.15 997.37 996.32 996.21 997.83 998.61 998.71 998.22 999.41 1000.11 1001.05 1002.33 1003.50
1013.93 1012.97 1011.35 1009.35 1007.85 1007.10 1006.47 1005.28 1005.18 1005.45 1005.09 1004.02 1003.71 1003.78 1002.60 1002.28 1002.37 1001.79 1001.41 1000.59 998.79 997.86 997.24 997.39 997.77 997.50 997.61 998.42 999.40 1000.42 1001.46 1002.31
1014.00 1013.21 1011.17 1009.41 1008.39 1008.77 1008.71 1007.19 1007.03 1007.03 1006.70 1006.15 1005.30 1004.82 1002.97 1002.80 1002.05 1001.83 1002.14 1000.85 1000.36 999.41 998.63 997.95 997.78 998.09 998.29 998.21 998.39 999.48 1000.35 1001.01
1014.42 1013.40 1011.49 1010.42 1009.48 1010.01 1010.19 1009.29 1009.03 1009.23 1009.05 1008.75 1008.14 1006.72 1004.51 1004.66 1004.07 1002.59 1003.60 1003.42 1002.06 1001.23 1000.03 999.30 999.03 998.77 998.39 998.49 998.26 998.51 999.53 1000.77
1014.88 1014.05 1012.78 1012.70 1011.75 1011.67 1011.69 1011.13 1011.33 1011.20 1010.84 1010.22 1009.11 1007.46 1005.67 1005.69 1004.09 1003.88 1004.01 1003.82 1002.95 1002.08 1000.77 999.98 999.49 999.38 998.99 998.40 998.53 998.43 999.15 1000.16
1017.73 1015.62 1014.36 1014.38 1014.21 1013.84 1013.73 1012.99 1011.93 1012.16 1011.71 1011.43 1010.18 1007.99 1006.73 1004.45 1004.68 1004.74 1005.21 1005.00 1004.28 1002.85 1001.43 1000.02 999.89 998.82 998.37 998.29 998.21 998.41 998.54 999.29
1018.62 1016.16 1015.75 1015.35 1015.01 1014.71 1014.10 1013.29 1012.74 1012.58 1012.18 1011.60 1009.93 1008.56 1005.68 1005.03 1005.60 1006.04 1005.82 1005.65 1004.45 1003.39 1002.49 1001.61 1000.95 999.88 998.28 997.85 997.90 998.06 998.21 998.71
1018.64 1017.77 1017.34 1016.11 1016.10 1015.43 1014.46 1013.63 1013.24 1012.48 1011.45 1010.73 1009.74 1007.05 1006.09 1005.90 1006.01 1006.15 1005.86 1005.38 1004.70 1003.89 1003.44 1002.77 1002.11 1001.11 1000.11 999.19 997.79 997.42 997.77 998.25
1018.69 1018.24 1018.13 1017.20 1016.50 1015.90 1014.37 1012.55 1012.19 1011.39 1010.74 1010.06 1009.27 1007.37 1006.64 1006.79 1006.88 1006.82 1006.45 1005.81 1005.40 1004.53 1004.16 1003.72 1003.23 1002.08 1000.92 999.98 998.75 996.83 997.22 997.78
1018.64 1018.00 1017.65 1017.39 1016.58 1015.79 1014.29 1012.88 1011.97 1011.23 1010.79 1010.85 1009.11 1006.77 1006.77 1006.92 1007.19 1007.27 1006.74 1006.25 1005.61 1005.47 1005.03 1004.46 1003.99 1002.89 1001.75 1000.59 999.39 998.43 997.39 997.56
Wind_Speed
23 18 18 20 21 21 24 20 18 16 19 24 21 21 13 16 20 23 10 16 25 24 23 24 23 24 24 24 22 22 22 17
9 5 8 14 14 15 15 22 23 17 20 14 20 18 14 14 14 14 12 19 9 22 22 21 22 21 21 22 23 22 22 18
9 9 13 13 16 15 15 13 18 16 16 17 13 22 19 21 18 24 31 17 9 15 18 21 21 21 22 21 23 21 20 19
19 13 14 16 20 19 14 17 15 14 17 22 17 14 17 15 13 23 22 22 20 13 28 25 24 23 23 22 21 22 21 19
16 16 18 13 17 20 19 18 22 16 14 22 15 15 8 11 11 5 24 21 25 27 34 26 25 23 22 23 23 21 19 19
13 9 15 12 16 18 19 16 15 20 23 20 14 20 23 19 16 9 8 31 29 24 7 20 23 22 21 22 21 20 22 20
20 22 18 18 18 22 24 23 22 17 23 22 18 17 18 20 20 20 13 11 11 11 30 32 23 21 20 19 21 21 20 22
21 22 21 23 20 20 20 17 21 20 25 24 13 10 17 17 19 23 22 20 7 8 12 20 23 22 22 20 21 20 19 22
19 19 21 24 19 20 19 19 15 18 23 20 18 15 18 18 18 21 25 30 8 7 2 3 12 21 21 22 19 20 17 17
13 15 14 16 19 23 23 23 20 21 24 22 19 18 20 19 19 21 20 28 15 5 8 12 9 11 17 18 18 18 18 17
10 12 17 22 16 18 14 19 18 12 16 24 20 20 24 20 16 19 19 23 13 11 13 12 14 9 9 18 19 17 18 19
12 13 18 21 21 9 10 14 13 16 18 22 23 16 17 20 16 12 17 13 13 12 12 13 13 13 12 12 18 21 20 21
12 15 14 18 18 5 10 14 15 16 17 19 19 19 28 27 26 9 4 20 15 14 11 11 13 15 15 12 15 20 19 16
8 11 15 18 14 9 10 13 13 17 21 21 25 28 31 32 15 10 7 12 13 13 12 13 15 15 17 17 12 12 16 17
4 6 13 16 12 17 16 17 22 18 23 23 25 29 34 13 5 5 6 9 10 12 13 9 14 11 18 18 13 9 14 18
7 4 16 19 20 18 18 19 15 20 21 20 22 32 5 5 5 3 5 7 8 9 9 11 13 16 10 15 14 10 14 16
8 13 13 9 11 15 17 14 19 25 20 15 19 7 8 8 6 6 6 8 8 8 9 12 13 12 13 14 8 12 14 14
5 11 10 10 13 15 22 16 17 11 11 12 15 5 9 9 4 6 7 8 9 11 11 12 12 12 13 14 15 13 14 13
4 11 6 14 12 17 16 16 10 10 7 12 10 8 8 9 5 6 7 8 10 11 10 11 12 13 16 15 15 12 11 12
Wind_Direction
210 201 226 247 218 242 262 254 248 251 226 229 243 242 179 149 164 168 257 251 179 179 187 184 188 185 182 178 182 184 191 187
172 263 232 252 286 240 226 252 265 263 260 241 206 220 193 154 142 160 186 268 200 174 186 188 191 185 184 179 185 186 188 190
278 188 242 236 257 257 279 263 248 258 260 272 226 203 208 181 169 164 191 179 321 304 196 193 189 188 186 185 181 187 190 193
264 261 190 257 274 251 242 245 271 265 250 264 10 199 206 228 226 186 159 153 179 303 280 182 186 190 186 187 187 190 190 190
265 265 257 237 251 254 269 241 251 248 246 262 294 349 207 205 222 246 154 154 173 191 234 185 182 185 186 187 193 185 190 195
271 274 346 298 261 253 272 248 250 248 261 274 356 18 1 1 354 314 222 174 192 195 175 180 179 179 185 187 188 191 186 193
282 293 297 288 288 288 233 254 255 254 247 260 55 358 323 320 341 339 304 246 257 224 164 212 175 174 179 187 189 188 189 193
277 283 282 279 260 262 279 260 253 262 272 280 342 2 307 310 331 333 318 307 336 358 190 180 172 173 177 184 186 189 192 193
267 263 270 258 254 260 261 264 274 264 269 288 306 314 301 310 319 321 325 311 276 324 359 22 222 174 177 184 182 186 191 191
267 284 260 257 270 273 248 259 257 264 271 284 289 293 291 296 303 303 315 307 344 289 324 131 183 309 182 183 182 186 191 188
246 249 271 276 267 261 320 262 260 315 309 299 297 303 291 287 278 280 281 286 315 329 330 338 336 334 204 174 183 194 191 197
230 243 248 252 255 26 343 271 279 285 289 291 301 285 280 296 297 280 346 302 323 319 320 319 316 310 299 217 179 193 205 199
246 245 253 262 273 115 233 271 332 335 316 309 299 282 287 297 294 319 168 288 314 311 299 292 291 292 286 276 215 198 201 201
238 245 261 9 316 249 328 315 310 310 305 297 291 290 285 294 262 283 302 295 299 297 292 283 263 239 255 260 255 211 188 198
305 310 319 308 313 310 308 296 292 300 291 293 287 284 288 233 248 301 327 307 309 306 294 300 343 285 221 243 240 234 188 189
324 328 324 314 313 304 284 275 295 292 278 279 283 282 195 122 80 358 338 328 334 327 340 349 347 337 287 225 235 219 198 187
253 280 304 285 315 308 306 289 269 266 254 269 272 237 113 87 42 20 0 359 358 13 7 4 352 343 348 334 263 211 193 183
287 307 285 289 307 319 289 268 255 279 284 265 273 197 110 99 63 19 11 4 14 20 13 358 347 343 354 348 332 200 182 181
306 306 318 318 318 326 339 352 14 352 29 342 322 39 89 97 75 10 19 25 27 8 4 359 344 353 351 349 348 322 188 184